Location: Waco, TX
(31.5480°N, 97.1670°W)
Time: 00:30:58
(UTC-06:00)

ISS - Pass Details

Date: 14 December 2017
Orbit: 403 x 407 km, 51.6° (Epoch: 12 December)

Event Time Altitude Azimuth Distance (km) Brightness Sun altitude
Rises 17:57:19 0° 334° (NNW) 2,325 0.1 -6.7°
Reaches altitude 10° 18:00:21 10° 4° (N) 1,462 -1.3 -7.3°
Maximum altitude 18:01:54 13° 33° (NNE) 1,305 -1.7 -7.6°
Enters shadow 18:03:22 10° 60° (ENE) 1,442 -1.7 -7.9°
Drops below altitude 10° 18:03:27 10° 61° (ENE) 1,458 - -7.9°
Sets 18:06:28 0° 92° (E) 2,314 - -8.5°
